COSMOS 970 DEB

Satellite information

Favourite Embed

Satellite Type and Status

DEBRISIN ORBIT

Key statistics

Satellite COSMOS 970 DEB at a glance.

Uptime

17420

Days in orbit

Revolutions

≈ 13.7

Per day

Orbit

LEO

Low Earth Orbit

Inclination

65.8

Latest

Satellite identification and parameters

Extended collection of information and parameters for COSMOS 970 DEB.

Object identification

Identified? True

Debris? True

Object name: COSMOS 970 DEB

International designator: 1977-121AB

Object number (NORAD): 10880

Object ID (CCSDS): 10880

Country: COMMONWEALTH OF INDEPENDENT STATES (CIS)

Current information (Y/N): Y

RCS size: SMALL

Orbital parameters

Period: 105.421 minutes

Inclination: 65.8416 deg

SMA: 7392.279 km

Apoapsis: 1094.928 km

Periapsis: 933.359 km

RAAN: 31.7334 deg

Eccentricy: 0.01092819

Argument of periapsis: 355.1244 deg

Mean anomaly: 121.182 deg

Mean motion: 13.65951459 rev/day

Mean motion (dot): 0.00000207 rev/day2

B* drag term: 0.00033335589 1/REarth

Two-line elements (TLE)

Creation date: Aug. 30, 2025, 3:38 a.m.

Reference frame: TEME

Reference center: EARTH

Epoch: Aug. 29, 2025, 7:29 p.m. UTC

TLE line 0: 0 COSMOS 970 DEB

TLE line 1: 1 10880U 77121AB 25241.81230933 .00000207 00000-0 33336-3 0 9998

TLE line 2: 2 10880 65.8416 31.7334 0109282 355.1244 121.1820 13.65951459369670

Live tracking on map

Real-time ground track for satellite COSMOS 970 DEB.

In-orbit conjunctions

A list of the most updated potential collisions computed for object COSMOS 970 DEB.

Target Orbit TCA Probability of collision Miss distance Type
SL-8 R/B LEO 2024-11-29 04:11:04 0.0002281285 804.0 (m) ROCKET BODY

Associated space launch

Second generation ASAT satellite

COSMOS 970 DEB was lifted into orbit during the mission ‘Tsiklon-2 | IS-A 8’, on board a Tsiklon-2 space rocket.

The launch took place on Dec. 21, 1977, 10:35 a.m. from 90.

For more information about the launch, click the button.

Launch to space Tsiklon-2 | IS-A 8
Tsiklon-2 | IS-A 8

Agency: N/A

Status: Launch Successful

Launch date: Dec. 21, 1977, 10:35 a.m. UTC

Rocket: Tsiklon-2

Launch pad: 90

Location: Baikonur Cosmodrome, Republic of Kazakhstan

...

Latest news about this satellite

There are no fresh news available about this satellite. Check back as we update our databases every day.


Newsletter sign-up

Weekly statistics, charts and insights to help you stay on top of the space industry.